"read_dt","SO2 (ppb)","flags","PMT voltage (V)","lamp voltage (V)","lamp intensity (Hz)","internal temp (C)","react chamber temp (C)","sample flow (l/min)","pres (mmHg)","SO2 bkg (ppb)","SO2 coefficient"
2018-08-27 00:00:00,-3.275E-01,4C000000*,-702.6,960.554,90,28.2,45.1,0.409,739.9,2.1,1.050*
2018-08-27 00:01:00,-3.068E-01,4C000000*,-702.6,962.171,89,28.1,44.9,0.409,739.9,2.1,1.050*
2018-08-27 00:02:00,-1.705E-01,4C000000*,-702.6,962.171,90,28.1,44.9,0.409,739.9,2.1,1.050*
2018-08-27 00:03:00,-3.202E-01,4C000000*,-702.6,961.362,89,28.1,45.1,0.409,739.9,2.1,1.050*
2018-08-27 00:04:00,-2.161E-01,4C000000*,-702.6,962.171,89,28.1,44.8,0.409,739.9,2.1,1.050*
2018-08-27 00:05:00,-3.144E-01,4C000000*,-702.6,961.767,90,28.1,45.2,0.409,739.9,2.1,1.050*
2018-08-27 00:06:00,-2.968E-01,4C000000*,-703.0,961.362,90,28.1,44.8,0.409,739.9,2.1,1.050*
2018-08-27 00:07:00,-3.025E-01,4C000000*,-702.6,962.171,90,28.1,45.0,0.409,739.9,2.1,1.050*
2018-08-27 00:08:00,-3.124E-01,4C000000*,-702.6,961.362,89,28.1,45.0,0.408,739.6,2.1,1.050*
2018-08-27 00:09:00,-2.757E-01,4C000000*,-702.6,960.554,89,28.1,45.0,0.409,739.9,2.1,1.050*
2018-08-27 00:10:00,-2.775E-01,4C000000*,-702.6,961.767,89,28.1,45.1,0.409,739.9,2.1,1.050*
2018-08-27 00:11:00,-2.343E-01,4C000000*,-702.6,960.958,91,28.1,44.8,0.409,739.9,2.1,1.050*
2018-08-27 00:12:00,-2.336E-01,4C000000*,-703.0,961.362,90,28.1,45.2,0.409,739.6,2.1,1.050*
2018-08-27 00:13:00,-3.059E-01,4C000000*,-702.6,963.384,91,28.1,44.8,0.409,739.9,2.1,1.050*
2018-08-27 00:14:00,-2.106E-01,4C000000*,-702.6,960.958,89,28.1,45.1,0.409,739.9,2.1,1.050*
2018-08-27 00:15:00,-2.750E-01,4C000000*,-702.6,960.958,90,28.1,45.0,0.409,739.9,2.1,1.050*
2018-08-27 00:16:00,-2.384E-01,4C000000*,-702.6,960.554,90,28.2,45.0,0.409,739.9,2.1,1.050*
2018-08-27 00:17:00,-1.313E-01,4C000000*,-703.0,961.767,88,28.2,45.1,0.409,739.9,2.1,1.050*
2018-08-27 00:18:00,-1.895E-01,4C000000*,-703.0,959.745,89,28.2,44.9,0.409,739.9,2.1,1.050*
2018-08-27 00:19:00,-2.094E-01,4C000000*,-703.0,960.958,90,28.1,45.1,0.409,739.6,2.1,1.050*
2018-08-27 00:20:00,-1.633E-01,4C000000*,-703.0,961.362,91,28.2,44.9,0.409,739.9,2.1,1.050*
2018-08-27 00:21:00,-1.827E-01,4C000000*,-702.6,961.767,91,28.2,45.1,0.409,739.9,2.1,1.050*
2018-08-27 00:22:00,-1.559E-01,4C000000*,-703.0,961.767,91,28.2,44.9,0.409,739.9,2.1,1.050*
2018-08-27 00:23:00,-1.659E-01,4C000000*,-703.0,962.171,90,28.2,45.0,0.409,739.9,2.1,1.050*
2018-08-27 00:24:00,-1.825E-01,4C000000*,-703.0,961.767,89,28.2,45.1,0.409,739.9,2.1,1.050*
2018-08-27 00:25:00,-9.421E-02,4C000000*,-702.6,961.362,90,28.2,44.9,0.409,739.9,2.1,1.050*
2018-08-27 00:26:00,-2.056E-01,4C000000*,-702.6,961.767,89,28.2,45.0,0.409,739.6,2.1,1.050*
2018-08-27 00:27:00,-1.430E-01,4C000000*,-702.6,961.767,89,28.2,44.8,0.409,739.9,2.1,1.050*
2018-08-27 00:28:00,-1.911E-01,4C000000*,-702.6,960.958,90,28.2,45.2,0.409,739.9,2.1,1.050*
2018-08-27 00:29:00,-2.104E-01,4C000000*,-702.6,960.554,89,28.2,44.8,0.409,739.9,2.1,1.050*
2018-08-27 00:30:00,-2.005E-01,4C000000*,-702.6,960.958,90,28.2,45.1,0.409,740.2,2.1,1.050*
2018-08-27 00:31:00,-3.079E-01,4C000000*,-702.6,962.171,90,28.3,45.0,0.409,739.9,2.1,1.050*
2018-08-27 00:32:00,-2.392E-01,4C000000*,-703.0,961.362,90,28.2,45.0,0.409,739.9,2.1,1.050*
2018-08-27 00:33:00,-2.298E-01,4C000000*,-702.6,962.575,89,28.3,45.1,0.409,739.9,2.1,1.050*
2018-08-27 00:34:00,-3.087E-01,4C000000*,-703.0,961.362,88,28.3,44.9,0.409,739.9,2.1,1.050*
2018-08-27 00:35:00,-2.767E-01,4C000000*,-702.6,962.171,90,28.2,45.2,0.409,739.9,2.1,1.050*
2018-08-27 00:36:00,-2.251E-01,4C000000*,-702.6,963.384,90,28.3,44.8,0.409,739.9,2.1,1.050*
2018-08-27 00:37:00,-2.555E-01,4C000000*,-702.6,961.767,90,28.3,45.0,0.409,739.9,2.1,1.050*
2018-08-27 00:38:00,-2.394E-01,4C000000*,-702.6,962.171,90,28.3,44.9,0.409,739.6,2.1,1.050*
2018-08-27 00:39:00,-3.122E-01,4C000000*,-703.0,961.767,90,28.3,45.0,0.409,739.9,2.1,1.050*
2018-08-27 00:40:00,-2.351E-01,4C000000*,-703.0,961.767,89,28.3,45.1,0.409,739.9,2.1,1.050*
2018-08-27 00:41:00,-2.764E-01,4C000000*,-702.6,961.362,90,28.3,44.8,0.409,739.9,2.1,1.050*
2018-08-27 00:42:00,-3.397E-01,4C000000*,-702.6,961.362,89,28.3,45.1,0.409,739.9,2.1,1.050*
2018-08-27 00:43:00,-2.582E-01,4C000000*,-702.6,962.575,90,28.3,44.8,0.409,739.9,2.1,1.050*
2018-08-27 00:44:00,-2.661E-01,4C000000*,-702.3,962.171,90,28.4,45.1,0.409,739.9,2.1,1.050*
2018-08-27 00:45:00,-2.864E-01,4C000000*,-702.3,962.979,90,28.4,44.9,0.409,739.9,2.1,1.050*
2018-08-27 00:46:00,-2.073E-01,4C000000*,-703.4,960.958,90,28.4,45.0,0.409,739.9,2.1,1.050*
2018-08-27 00:47:00,-2.232E-01,4C000000*,-703.4,962.575,90,28.4,45.0,0.409,739.6,2.1,1.050*
2018-08-27 00:48:00,-2.538E-01,4C000000*,-703.0,962.171,91,28.4,44.9,0.409,739.9,2.1,1.050*
2018-08-27 00:49:00,-2.569E-01,4C000000*,-703.0,962.171,89,28.4,45.1,0.409,739.9,2.1,1.050*
2018-08-27 00:50:00,-3.889E-01,4C000000*,-703.0,961.767,89,28.4,44.9,0.409,739.9,2.1,1.050*
2018-08-27 00:51:00,-2.563E-01,4C000000*,-703.0,962.171,90,28.4,45.2,0.409,739.9,2.1,1.050*
2018-08-27 00:52:00,-2.520E-01,4C000000*,-703.0,962.171,89,28.4,44.8,0.409,739.9,2.1,1.050*
2018-08-27 00:53:00,-2.791E-01,4C000000*,-702.6,962.979,91,28.4,45.0,0.409,739.9,2.1,1.050*
2018-08-27 00:54:00,-2.602E-01,4C000000*,-702.6,962.171,89,28.4,44.9,0.409,739.6,2.1,1.050*
2018-08-27 00:55:00,-2.720E-01,4C000000*,-702.6,962.171,89,28.4,44.9,0.409,739.9,2.1,1.050*
2018-08-27 00:56:00,-3.284E-01,4C000000*,-702.6,961.362,90,28.4,45.1,0.409,739.9,2.1,1.050*
2018-08-27 00:57:00,-2.381E-01,4C000000*,-703.0,961.362,88,28.4,44.9,0.409,739.9,2.1,1.050*
2018-08-27 00:58:00,-3.124E-01,4C000000*,-702.6,962.171,90,28.4,45.2,0.409,739.9,2.1,1.050*
2018-08-27 00:59:00,-2.595E-01,4C000000*,-703.0,961.362,89,28.3,44.8,0.409,739.9,2.1,1.050*
2018-08-27 01:00:00,-2.708E-01,4C000000*,-703.0,962.171,89,28.4,45.0,0.409,739.9,2.1,1.050*
2018-08-27 01:01:00,-2.957E-01,4C000000*,-703.0,961.362,89,28.4,44.9,0.409,739.6,2.1,1.050*
2018-08-27 01:02:00,-1.766E-01,4C000000*,-702.6,961.767,90,28.4,45.0,0.409,739.9,2.1,1.050*
2018-08-27 01:03:00,-2.416E-01,4C000000*,-703.0,962.171,91,28.4,45.2,0.409,739.9,2.1,1.050*
2018-08-27 01:04:00,-2.334E-01,4C000000*,-703.0,961.362,90,28.4,44.9,0.409,739.9,2.1,1.050*
2018-08-27 01:05:00,-2.132E-01,4C000000*,-702.6,962.575,88,28.5,45.1,0.409,739.9,2.1,1.050*
2018-08-27 01:06:00,-2.376E-01,4C000000*,-703.0,961.362,90,28.5,44.8,0.409,739.9,2.1,1.050*
2018-08-27 01:07:00,-2.452E-01,4C000000*,-702.6,960.958,90,28.5,45.0,0.409,739.9,2.1,1.050*
2018-08-27 01:08:00,-1.417E-01,4C000000*,-702.6,960.958,89,28.5,44.9,0.409,739.6,2.1,1.050*
2018-08-27 01:09:00,-2.710E-01,4C000000*,-702.6,960.958,90,28.5,44.9,0.409,739.9,2.1,1.050*
2018-08-27 01:10:00,-1.121E-01,4C000000*,-702.6,961.362,88,28.5,45.1,0.409,739.9,2.1,1.050*
2018-08-27 01:11:00,-8.358E-02,4C000000*,-702.6,960.958,90,28.5,44.9,0.409,739.9,2.1,1.050*
2018-08-27 01:12:00,-1.902E-01,4C000000*,-703.0,960.958,91,28.5,45.1,0.408,739.6,2.1,1.050*
2018-08-27 01:13:00,-1.557E-01,4C000000*,-703.0,960.958,90,28.5,44.8,0.409,739.9,2.1,1.050*
2018-08-27 01:14:00,-2.599E-01,4C000000*,-702.6,961.767,90,28.6,45.2,0.409,739.9,2.1,1.050*
2018-08-27 01:15:00,-2.593E-01,4C000000*,-702.6,960.554,90,28.5,44.9,0.409,739.9,2.1,1.050*
2018-08-27 01:16:00,-1.672E-01,4C000000*,-702.6,961.362,88,28.5,45.0,0.409,739.9,2.1,1.050*
2018-08-27 01:17:00,-1.717E-01,4C000000*,-702.6,960.958,90,28.5,45.0,0.409,739.9,2.1,1.050*
2018-08-27 01:18:00,-1.808E-01,4C000000*,-703.0,962.171,90,28.6,44.9,0.409,739.9,2.1,1.050*
2018-08-27 01:19:00,-1.349E-01,4C000000*,-703.0,960.958,89,28.6,45.1,0.409,739.9,2.1,1.050*
2018-08-27 01:20:00,-2.736E-01,4C000000*,-703.0,961.362,91,28.6,44.8,0.410,739.9,2.1,1.050*
2018-08-27 01:21:00,-2.212E-01,4C000000*,-702.6,960.554,90,28.5,45.2,0.409,739.9,2.1,1.050*
2018-08-27 01:22:00,-2.152E-01,4C000000*,-703.0,961.362,90,28.6,44.8,0.409,739.6,2.1,1.050*
2018-08-27 01:23:00,-7.441E-02,4C000000*,-702.6,961.767,90,28.6,45.1,0.409,739.9,2.1,1.050*
2018-08-27 01:24:00,-7.885E-02,4C000000*,-702.6,961.362,91,28.6,45.0,0.409,739.9,2.1,1.050*
2018-08-27 01:25:00,-2.635E-01,4C000000*,-703.0,960.958,90,28.6,44.9,0.409,739.9,2.1,1.050*
2018-08-27 01:26:00,-1.714E-01,4C000000*,-702.6,962.575,89,28.6,45.1,0.409,739.9,2.1,1.050*
2018-08-27 01:27:00,-2.674E-01,4C000000*,-702.6,960.958,91,28.6,44.9,0.409,739.9,2.1,1.050*
2018-08-27 01:28:00,-2.238E-01,4C000000*,-702.6,960.554,89,28.7,45.2,0.409,739.9,2.1,1.050*
2018-08-27 01:29:00,-1.286E-01,4C000000*,-702.6,961.362,90,28.7,44.8,0.409,739.9,2.1,1.050*
2018-08-27 01:30:00,-3.085E-01,4C000000*,-702.6,960.958,89,28.6,45.0,0.409,739.9,2.1,1.050*
2018-08-27 01:31:00,-1.549E-01,4C000000*,-702.3,960.554,91,28.7,44.9,0.409,739.6,2.1,1.050*
2018-08-27 01:32:00,-1.712E-01,4C000000*,-703.0,960.554,89,28.6,45.0,0.409,739.9,2.1,1.050*
2018-08-27 01:33:00,-1.455E-01,4C000000*,-703.0,960.150,89,28.7,45.1,0.409,739.9,2.1,1.050*
2018-08-27 01:34:00,-1.276E-01,4C000000*,-703.0,961.362,91,28.7,44.9,0.409,739.9,2.1,1.050*
2018-08-27 01:35:00,-1.825E-01,4C000000*,-703.0,960.958,91,28.7,45.1,0.409,739.6,2.1,1.050*
2018-08-27 01:36:00,-2.026E-01,4C000000*,-702.6,961.362,90,28.7,44.9,0.409,739.9,2.1,1.050*
2018-08-27 01:37:00,-1.821E-01,4C000000*,-702.6,962.171,90,28.7,45.1,0.409,739.9,2.1,1.050*
2018-08-27 01:38:00,-1.616E-01,4C000000*,-702.3,961.767,90,28.7,44.8,0.409,739.9,2.1,1.050*
2018-08-27 01:39:00,-2.979E-01,4C000000*,-702.6,960.150,91,28.7,45.0,0.410,739.9,2.1,1.050*
2018-08-27 01:40:00,-1.657E-01,4C000000*,-702.6,960.958,90,28.7,45.0,0.409,739.9,2.1,1.050*
2018-08-27 01:41:00,-2.780E-01,4C000000*,-703.0,960.958,89,28.7,44.9,0.409,739.9,2.1,1.050*
2018-08-27 01:42:00,-1.900E-01,4C000000*,-702.3,960.554,90,28.8,45.1,0.409,739.6,2.1,1.050*
2018-08-27 01:43:00,-2.271E-01,4C000000*,-703.0,961.767,90,28.7,44.9,0.409,739.9,2.1,1.050*
2018-08-27 01:44:00,-1.793E-01,4C000000*,-702.3,962.171,90,28.7,45.2,0.409,739.9,2.1,1.050*
2018-08-27 01:45:00,-1.833E-01,4C000000*,-702.6,961.767,89,28.7,44.8,0.409,739.9,2.1,1.050*
2018-08-27 01:46:00,-1.993E-01,4C000000*,-702.6,960.554,89,28.8,45.0,0.409,739.9,2.1,1.050*
2018-08-27 01:47:00,-2.087E-01,4C000000*,-702.6,961.767,89,28.8,44.9,0.409,739.6,2.1,1.050*
2018-08-27 01:48:00,-1.144E-01,4C000000*,-702.6,961.767,90,28.7,45.0,0.409,739.9,2.1,1.050*
2018-08-27 01:49:00,-2.828E-01,4C000000*,-702.3,961.767,90,28.7,45.1,0.409,739.9,2.1,1.050*
2018-08-27 01:50:00,-2.392E-01,4C000000*,-702.6,960.958,89,28.8,44.8,0.409,739.9,2.1,1.050*
2018-08-27 01:51:00,-1.835E-01,4C000000*,-702.6,961.362,89,28.8,45.2,0.409,739.9,2.1,1.050*
2018-08-27 01:52:00,-2.711E-01,4C000000*,-702.6,961.362,91,28.8,44.8,0.409,739.9,2.1,1.050*
2018-08-27 01:53:00,-2.638E-01,4C000000*,-702.6,960.150,89,28.8,45.1,0.409,739.9,2.1,1.050*
2018-08-27 01:54:00,-2.638E-01,4C000000*,-702.6,960.554,88,28.8,44.9,0.409,739.9,2.1,1.050*
2018-08-27 01:55:00,-1.947E-01,4C000000*,-702.6,961.362,89,28.9,45.0,0.409,739.9,2.1,1.050*
2018-08-27 01:56:00,-2.350E-01,4C000000*,-703.0,960.554,88,28.9,45.1,0.409,739.6,2.1,1.050*
2018-08-27 01:57:00,-2.491E-01,4C000000*,-702.6,960.958,90,28.8,44.9,0.409,739.9,2.1,1.050*
2018-08-27 01:58:00,-1.871E-01,4C000000*,-702.6,960.958,90,28.8,45.1,0.409,739.6,2.1,1.050*
2018-08-27 01:59:00,-2.165E-01,4C000000*,-702.6,961.362,90,28.9,44.8,0.409,739.9,2.1,1.050*
2018-08-27 02:00:00,-2.525E-01,4C000000*,-703.0,960.150,90,28.9,45.1,0.409,739.9,2.1,1.050*
2018-08-27 02:01:00,-1.910E-01,4C000000*,-703.0,960.958,89,28.9,44.9,0.409,739.9,2.1,1.050*
2018-08-27 02:02:00,-2.445E-01,4C000000*,-702.6,960.554,91,28.9,45.0,0.409,739.9,2.1,1.050*
2018-08-27 02:03:00,-2.761E-01,4C000000*,-702.6,960.554,90,28.9,45.0,0.410,739.9,2.1,1.050*
2018-08-27 02:04:00,-2.933E-01,4C000000*,-702.6,962.171,91,28.9,44.9,0.409,739.9,2.1,1.050*
2018-08-27 02:05:00,-2.535E-01,4C000000*,-702.6,959.745,90,28.9,45.1,0.409,739.9,2.1,1.050*
2018-08-27 02:06:00,-2.276E-01,4C000000*,-703.0,960.150,89,28.9,44.9,0.409,739.9,2.1,1.050*
2018-08-27 02:07:00,-2.440E-01,4C000000*,-702.6,960.958,90,29.0,45.2,0.409,739.9,2.1,1.050*
2018-08-27 02:08:00,-2.501E-01,4C000000*,-703.0,959.341,89,29.0,44.9,0.409,739.9,2.1,1.050*
2018-08-27 02:09:00,-2.584E-01,4C000000*,-702.6,962.171,89,28.9,45.0,0.409,739.9,2.1,1.050*
2018-08-27 02:10:00,-2.839E-01,4C000000*,-702.6,961.767,91,29.0,44.9,0.409,739.6,2.1,1.050*
2018-08-27 02:11:00,-2.834E-01,4C000000*,-702.3,960.554,89,28.9,44.9,0.410,739.9,2.1,1.050*
2018-08-27 02:12:00,-2.572E-01,4C000000*,-703.0,959.745,90,28.9,45.1,0.409,739.9,2.1,1.050*
2018-08-27 02:13:00,-2.474E-01,4C000000*,-703.0,960.554,90,29.0,44.8,0.409,739.9,2.1,1.050*
2018-08-27 02:14:00,-3.548E-01,4C000000*,-702.6,960.554,90,29.0,45.2,0.409,739.9,2.1,1.050*
2018-08-27 02:15:00,-3.036E-01,4C000000*,-703.4,960.554,90,28.9,44.8,0.409,739.6,2.1,1.050*
2018-08-27 02:16:00,-2.625E-01,4C000000*,-703.0,960.554,90,29.0,45.0,0.409,739.6,2.1,1.050*
2018-08-27 02:17:00,-2.794E-01,4C000000*,-703.0,960.150,90,29.0,45.0,0.409,739.9,2.1,1.050*
2018-08-27 02:18:00,-2.552E-01,4C000000*,-702.6,961.767,90,28.9,44.8,0.409,739.9,2.1,1.050*
2018-08-27 02:19:00,-2.855E-01,4C000000*,-702.6,960.958,90,29.0,45.2,0.409,739.9,2.1,1.050*
2018-08-27 02:20:00,-3.310E-01,4C000000*,-702.6,960.554,90,29.0,44.9,0.409,739.9,2.1,1.050*
2018-08-27 02:21:00,-3.133E-01,4C000000*,-702.6,960.958,90,29.0,45.1,0.409,739.9,2.1,1.050*
2018-08-27 02:22:00,-2.274E-01,4C000000*,-702.6,961.767,90,29.1,44.9,0.409,739.6,2.1,1.050*
2018-08-27 02:23:00,-2.942E-01,4C000000*,-703.0,960.150,89,29.0,45.0,0.409,739.9,2.1,1.050*
2018-08-27 02:24:00,-2.645E-01,4C000000*,-702.6,961.767,90,29.1,45.1,0.409,739.9,2.1,1.050*
2018-08-27 02:25:00,-2.415E-01,4C000000*,-702.6,960.958,88,29.1,44.9,0.409,739.9,2.1,1.050*
2018-08-27 02:26:00,-2.010E-01,4C000000*,-702.6,961.767,91,29.1,45.2,0.409,739.6,2.1,1.050*
2018-08-27 02:27:00,-2.612E-01,4C000000*,-702.3,960.958,90,29.1,44.8,0.410,739.9,2.1,1.050*
2018-08-27 02:28:00,-4.192E-01,4C000000*,-702.6,960.958,89,29.1,45.0,0.409,739.6,2.1,1.050*
2018-08-27 02:29:00,-1.516E-01,4C000000*,-702.6,962.979,91,29.1,44.9,0.409,739.6,2.1,1.050*
2018-08-27 02:30:00,-3.472E-01,4C000000*,-703.0,960.958,88,29.1,44.9,0.409,739.9,2.1,1.050*
2018-08-27 02:31:00,-3.717E-01,4C000000*,-702.6,960.958,90,29.2,45.1,0.409,739.6,2.1,1.050*
2018-08-27 02:32:00,-2.699E-01,4C000000*,-702.3,962.575,91,29.1,44.9,0.409,739.9,2.1,1.050*
2018-08-27 02:33:00,-2.905E-01,4C000000*,-702.6,960.554,89,29.1,45.1,0.409,739.9,2.1,1.050*
2018-08-27 02:34:00,-3.016E-01,4C000000*,-702.6,960.150,90,29.2,44.9,0.409,739.9,2.1,1.050*
2018-08-27 02:35:00,-2.778E-01,4C000000*,-702.6,960.150,89,29.1,45.1,0.409,739.9,2.1,1.050*
2018-08-27 02:36:00,-3.369E-01,4C000000*,-702.6,960.958,89,29.2,44.9,0.409,739.9,2.1,1.050*
2018-08-27 02:37:00,-2.330E-01,4C000000*,-702.6,960.554,88,29.2,45.0,0.409,739.9,2.1,1.050*
2018-08-27 02:38:00,-2.172E-01,4C000000*,-702.6,962.575,89,29.2,45.0,0.410,739.9,2.1,1.050*
2018-08-27 02:39:00,-3.296E-01,4C000000*,-702.6,960.958,90,29.2,44.9,0.409,739.9,2.1,1.050*
2018-08-27 02:40:00,-2.930E-01,4C000000*,-702.6,961.362,89,29.2,45.1,0.409,739.9,2.1,1.050*
2018-08-27 02:41:00,-2.772E-01,4C000000*,-702.6,961.767,89,29.2,44.9,0.409,739.9,2.1,1.050*
2018-08-27 02:42:00,-2.819E-01,4C000000*,-702.6,961.362,91,29.2,45.2,0.409,739.9,2.1,1.050*
2018-08-27 02:43:00,-1.743E-01,4C000000*,-703.4,961.362,91,29.2,44.8,0.409,739.9,2.1,1.050*
2018-08-27 02:44:00,-3.376E-01,4C000000*,-702.6,961.362,91,29.2,45.0,0.409,739.9,2.1,1.050*
2018-08-27 02:45:00,-2.863E-01,4C000000*,-703.0,961.767,90,29.2,44.9,0.409,739.9,2.1,1.050*
2018-08-27 02:46:00,-3.256E-01,4C000000*,-702.6,960.150,90,29.3,45.0,0.409,739.9,2.1,1.050*
2018-08-27 02:47:00,-3.215E-01,4C000000*,-702.6,961.362,89,29.2,45.0,0.410,739.6,2.1,1.050*
2018-08-27 02:48:00,-2.307E-01,4C000000*,-702.6,960.958,90,29.2,44.9,0.409,739.9,2.1,1.050*
2018-08-27 02:49:00,-3.004E-01,4C000000*,-702.3,959.745,87,29.3,45.2,0.409,739.6,2.1,1.050*
2018-08-27 02:50:00,-2.142E-01,4C000000*,-702.6,962.171,89,29.4,44.8,0.409,739.9,2.1,1.050*
2018-08-27 02:51:00,-2.767E-01,4C000000*,-702.6,961.362,90,29.3,45.0,0.410,739.9,2.1,1.050*
2018-08-27 02:52:00,-1.858E-01,4C000000*,-702.6,961.767,90,29.3,44.9,0.409,739.6,2.1,1.050*
2018-08-27 02:53:00,-2.460E-01,4C000000*,-702.6,961.767,90,29.3,45.0,0.409,739.6,2.1,1.050*
2018-08-27 02:54:00,-2.994E-01,4C000000*,-702.6,961.362,90,29.3,45.1,0.409,739.6,2.1,1.050*
2018-08-27 02:55:00,-2.849E-01,4C000000*,-702.6,961.767,90,29.2,44.8,0.409,739.6,2.1,1.050*
2018-08-27 02:56:00,-2.668E-01,4C000000*,-702.6,960.958,90,29.3,45.2,0.409,739.9,2.1,1.050*
2018-08-27 02:57:00,-3.262E-01,4C000000*,-703.0,960.150,90,29.3,44.9,0.409,739.9,2.1,1.050*
2018-08-27 02:58:00,-2.511E-01,4C000000*,-702.6,961.767,92,29.3,45.1,0.409,739.6,2.1,1.050*
2018-08-27 02:59:00,-2.815E-01,4C000000*,-702.6,960.554,90,29.3,45.0,0.409,739.6,2.1,1.050*
2018-08-27 03:00:00,-2.897E-01,4C000000*,-702.6,962.171,91,29.4,45.0,0.409,739.9,2.1,1.050*
2018-08-27 03:01:00,-2.624E-01,4C000000*,-702.6,963.384,88,29.3,45.1,0.409,739.6,2.1,1.050*
2018-08-27 03:02:00,-2.289E-01,4C000000*,-702.6,961.767,89,29.3,44.9,0.409,739.6,2.1,1.050*
2018-08-27 03:03:00,-2.918E-01,4C000000*,-702.6,962.171,90,29.4,45.1,0.410,739.6,2.1,1.050*
2018-08-27 03:04:00,-1.981E-01,4C000000*,-702.6,962.575,90,29.4,44.9,0.409,739.6,2.1,1.050*
2018-08-27 03:05:00,-2.429E-01,4C000000*,-702.6,962.171,89,29.3,45.1,0.409,739.6,2.1,1.050*
2018-08-27 03:06:00,-1.947E-01,4C000000*,-702.6,962.171,90,29.4,44.9,0.409,739.6,2.1,1.050*
2018-08-27 03:07:00,-2.443E-01,4C000000*,-702.6,961.362,88,29.3,45.0,0.409,739.6,2.1,1.050*
2018-08-27 03:08:00,-2.908E-01,4C000000*,-702.6,962.171,90,29.4,45.0,0.409,739.6,2.1,1.050*
2018-08-27 03:09:00,-3.779E-01,4C000000*,-703.0,962.575,90,29.4,44.9,0.409,739.9,2.1,1.050*
2018-08-27 03:10:00,-3.140E-01,4C000000*,-703.0,962.171,90,29.4,45.1,0.410,739.6,2.1,1.050*
2018-08-27 03:11:00,-2.551E-01,4C000000*,-702.3,961.767,91,29.4,44.9,0.409,739.9,2.1,1.050*
2018-08-27 03:12:00,-2.256E-01,4C000000*,-702.6,961.362,90,29.4,45.2,0.409,739.6,2.1,1.050*
2018-08-27 03:13:00,-2.291E-01,4C000000*,-702.6,960.554,88,29.4,44.9,0.409,739.6,2.1,1.050*
2018-08-27 03:14:00,-2.202E-01,4C000000*,-702.6,960.150,89,29.4,45.1,0.409,739.6,2.1,1.050*
2018-08-27 03:15:00,-3.369E-01,4C000000*,-703.0,962.575,90,29.4,44.9,0.409,739.6,2.1,1.050*
2018-08-27 03:16:00,-2.980E-01,4C000000*,-702.6,960.150,90,29.4,45.0,0.409,739.9,2.1,1.050*
2018-08-27 03:17:00,-2.800E-01,4C000000*,-702.6,962.171,90,29.4,45.1,0.409,739.6,2.1,1.050*
2018-08-27 03:18:00,-2.280E-01,4C000000*,-703.0,961.767,90,29.4,44.9,0.409,739.6,2.1,1.050*
2018-08-27 03:19:00,-2.026E-01,4C000000*,-702.6,961.362,89,29.4,45.2,0.409,739.6,2.1,1.050*
2018-08-27 03:20:00,-2.481E-01,4C000000*,-702.6,960.958,90,29.4,44.9,0.409,739.6,2.1,1.050*
2018-08-27 03:21:00,-2.126E-01,4C000000*,-702.6,961.362,90,29.5,45.1,0.409,739.9,2.1,1.050*
2018-08-27 03:22:00,-3.058E-01,4C000000*,-702.3,960.958,90,29.5,44.9,0.410,739.6,2.1,1.050*
2018-08-27 03:23:00,-2.647E-01,4C000000*,-703.0,962.171,91,29.5,45.0,0.409,739.9,2.1,1.050*
2018-08-27 03:24:00,-2.114E-01,4C000000*,-702.6,960.958,88,29.5,45.0,0.409,739.6,2.1,1.050*
2018-08-27 03:25:00,-2.241E-01,4C000000*,-702.6,960.958,89,29.5,44.8,0.409,739.9,2.1,1.050*
2018-08-27 03:26:00,-2.428E-01,4C000000*,-702.6,960.554,90,29.5,45.2,0.409,739.9,2.1,1.050*
2018-08-27 03:27:00,-1.960E-01,4C000000*,-702.3,960.958,90,29.5,44.9,0.409,739.6,2.1,1.050*
2018-08-27 03:28:00,-2.182E-01,4C000000*,-702.6,962.171,91,29.5,45.1,0.409,739.6,2.1,1.050*
2018-08-27 03:29:00,-1.930E-01,4C000000*,-702.6,961.362,90,29.5,44.9,0.409,739.6,2.1,1.050*
2018-08-27 03:30:00,-1.415E-01,4C000000*,-703.0,961.767,88,29.6,45.0,0.410,739.9,2.1,1.050*
2018-08-27 03:31:00,-1.457E-01,4C000000*,-702.6,960.958,90,29.6,45.1,0.409,739.6,2.1,1.050*
2018-08-27 03:32:00,-8.093E-02,4C000000*,-702.6,960.958,90,29.6,44.9,0.409,739.6,2.1,1.050*
2018-08-27 03:33:00,-2.087E-01,4C000000*,-702.6,962.171,90,29.6,45.1,0.409,739.9,2.1,1.050*
2018-08-27 03:34:00,-2.202E-01,4C000000*,-702.6,961.362,91,29.6,44.9,0.409,739.9,2.1,1.050*
2018-08-27 03:35:00,-2.914E-01,4C000000*,-702.6,961.362,91,29.6,45.2,0.409,739.6,2.1,1.050*
2018-08-27 03:36:00,-2.243E-01,4C000000*,-702.6,962.979,88,29.6,44.8,0.409,739.6,2.1,1.050*
2018-08-27 03:37:00,-3.290E-01,4C000000*,-702.6,961.362,90,29.6,45.0,0.410,739.9,2.1,1.050*
2018-08-27 03:38:00,-3.089E-01,4C000000*,-703.0,962.171,90,29.6,45.0,0.409,739.9,2.1,1.050*
2018-08-27 03:39:00,-2.317E-01,4C000000*,-702.6,960.958,90,29.6,45.0,0.410,739.9,2.1,1.050*
2018-08-27 03:40:00,-3.342E-01,4C000000*,-702.6,961.767,90,29.6,45.1,0.410,739.6,2.1,1.050*
2018-08-27 03:41:00,-2.949E-01,4C000000*,-702.6,961.362,90,29.6,44.9,0.410,739.9,2.1,1.050*
2018-08-27 03:42:00,-2.069E-01,4C000000*,-702.6,961.362,91,29.6,45.2,0.410,739.9,2.1,1.050*
2018-08-27 03:43:00,-1.008E-01,4C000000*,-702.6,962.575,89,29.6,44.8,0.410,739.6,2.1,1.050*
2018-08-27 03:44:00,-2.381E-01,4C000000*,-702.6,961.362,90,29.6,45.1,0.409,739.6,2.1,1.050*
2018-08-27 03:45:00,-2.628E-01,4C000000*,-703.4,961.362,90,29.7,44.9,0.410,739.6,2.1,1.050*
2018-08-27 03:46:00,-2.147E-01,4C000000*,-702.6,960.958,90,29.6,45.0,0.410,739.9,2.1,1.050*
2018-08-27 03:47:00,-2.446E-01,4C000000*,-702.6,961.362,89,29.7,45.1,0.409,739.6,2.1,1.050*
2018-08-27 03:48:00,-2.781E-01,4C000000*,-702.6,961.362,91,29.6,44.8,0.409,739.6,2.1,1.050*
2018-08-27 03:49:00,-2.095E-01,4C000000*,-702.6,961.362,90,29.7,45.1,0.409,739.9,2.1,1.050*
2018-08-27 03:50:00,-2.207E-01,4C000000*,-702.6,961.767,90,29.7,45.0,0.410,739.6,2.1,1.050*
2018-08-27 03:51:00,-3.643E-01,4C000000*,-702.6,960.958,89,29.6,44.9,0.410,739.9,2.1,1.050*
2018-08-27 03:52:00,-1.840E-01,4C000000*,-703.0,960.958,90,29.7,45.0,0.409,739.9,2.1,1.050*
2018-08-27 03:53:00,-2.468E-01,4C000000*,-702.6,960.958,89,29.7,44.9,0.410,739.9,2.1,1.050*
2018-08-27 03:54:00,-1.653E-01,4C000000*,-702.6,961.767,89,29.7,45.3,0.409,739.6,2.1,1.050*
2018-08-27 03:55:00,-2.611E-01,4C000000*,-702.6,962.171,90,29.7,44.8,0.410,739.6,2.1,1.050*
2018-08-27 03:56:00,-2.435E-01,4C000000*,-702.6,960.554,89,29.7,45.1,0.409,739.6,2.1,1.050*
2018-08-27 03:57:00,-2.066E-01,4C000000*,-703.0,962.979,89,29.7,45.0,0.409,739.6,2.1,1.050*
2018-08-27 03:58:00,-2.371E-01,4C000000*,-702.6,960.150,90,29.8,45.0,0.410,739.9,2.1,1.050*
2018-08-27 03:59:00,-1.722E-01,4C000000*,-703.0,961.362,90,29.7,45.1,0.409,739.6,2.1,1.050*
2018-08-27 04:00:00,-2.642E-01,4C000000*,-702.6,961.362,90,29.7,44.9,0.410,739.9,2.1,1.050*
2018-08-27 04:01:00,-2.369E-01,4C000000*,-703.0,960.958,89,29.7,45.2,0.410,739.6,2.1,1.050*
2018-08-27 04:02:00,-2.113E-01,4C000000*,-702.6,962.171,90,29.7,44.9,0.409,739.6,2.1,1.050*
2018-08-27 04:03:00,-2.573E-01,4C000000*,-702.6,962.171,90,29.7,45.1,0.410,739.6,2.1,1.050*
2018-08-27 04:04:00,-1.823E-01,4C000000*,-702.6,962.171,89,29.7,44.9,0.409,739.6,2.1,1.050*
2018-08-27 04:05:00,-2.338E-01,4C000000*,-702.6,961.767,89,29.7,45.0,0.410,739.9,2.1,1.050*
2018-08-27 04:06:00,-3.263E-01,4C000000*,-702.6,962.575,90,29.7,45.1,0.409,739.6,2.1,1.050*
2018-08-27 04:07:00,-2.174E-01,4C000000*,-702.6,961.767,90,29.7,44.9,0.410,739.9,2.1,1.050*
2018-08-27 04:08:00,-3.333E-01,4C000000*,-703.0,960.958,89,29.7,45.1,0.409,739.6,2.1,1.050*
2018-08-27 04:09:00,-2.967E-01,4C000000*,-702.6,960.958,89,29.7,44.8,0.409,739.6,2.1,1.050*
2018-08-27 04:10:00,-3.217E-01,4C000000*,-702.6,961.362,91,29.7,45.1,0.410,739.6,2.1,1.050*
2018-08-27 04:11:00,-2.391E-01,4C000000*,-702.6,960.958,90,29.7,44.8,0.410,739.9,2.1,1.050*
2018-08-27 04:12:00,-3.273E-01,4C000000*,-703.0,961.767,89,29.7,45.0,0.410,739.9,2.1,1.050*
2018-08-27 04:13:00,-2.286E-01,4C000000*,-703.0,960.554,90,29.8,45.1,0.409,739.6,2.1,1.050*
2018-08-27 04:14:00,-2.998E-01,4C000000*,-702.6,961.362,90,29.7,44.9,0.409,739.9,2.1,1.050*